This is the latest recevied weather packets stored in our database for station/object LU4HH-15. If no packets are shown the sender has not sent any weather packets the latest 10 day(s).
| Time | Temp. | Humidity | Pressure | Rain* | Wind** | Luminosity | Snow |
|---|---|---|---|---|---|---|---|
| 1788663117 | 11.11° C | 43% | 1037.4 hPa | - | - | - | - |
| 1788662216 | 11.11° C | 43% | 1037.4 hPa | - | - | - | - |
| 1788661315 | 11.11° C | 43% | 1037.4 hPa | - | - | - | - |
| 1788660414 | 11.67° C | 43% | 1037.3 hPa | - | - | - | - |
| 1788659513 | 11.67° C | 43% | 1037.2 hPa | - | - | - | - |
| 1788658612 | 11.67° C | 43% | 1037.3 hPa | - | - | - | - |
| 1788657711 | 11.67° C | 43% | 1037.2 hPa | - | - | - | - |
| 1788656810 | 11.67° C | 43% | 1037 hPa | - | - | - | - |
| 1788655909 | 11.67° C | 43% | 1037 hPa | - | - | - | - |
| 1788655008 | 12.22° C | 43% | 1036.6 hPa | - | - | - | - |
| 1788654105 | 12.22° C | 42% | 1036.4 hPa | - | - | - | - |
| 1788653204 | 12.22° C | 42% | 1036.3 hPa | - | - | - | - |
| 1788652303 | 12.22° C | 43% | 1036.1 hPa | - | - | - | - |
| 1788651402 | 12.22° C | 43% | 1035.9 hPa | - | - | - | - |
| 1788650501 | 12.22° C | 43% | 1035.6 hPa | - | - | - | - |
| 1788649600 | 12.78° C | 43% | 1035.4 hPa | - | - | - | - |
| 1788648699 | 12.78° C | 43% | 1035.1 hPa | - | - | - | - |
| 1788647798 | 12.78° C | 43% | 1034.9 hPa | - | - | - | - |
| 1788646897 | 12.78° C | 43% | 1034.4 hPa | - | - | - | - |
| 1788645996 | 13.33° C | 42% | 1034.2 hPa | - | - | - | - |
| 1788645094 | 15° C | 39% | 1033.9 hPa | - | - | - | - |
| 1788643249 | 13.33° C | 42% | 1033.7 hPa | - | - | - | - |
| 1788642348 | 13.33° C | 41% | 1033.6 hPa | - | - | - | - |
| 1788641447 | 13.33° C | 41% | 1033.4 hPa | - | - | - | - |
| 1788640546 | 13.33° C | 41% | 1033.2 hPa | - | - | - | - |
* Rain since midnight (hover to see other rain measurements)
** Current wind speed in m/s (hover to see current wind gust speed)